FW4441 Weather Reports


time (UTC)temp
F
wind
direction
speed
knots
gust
knots
rain 1hr
in
rain 24hr
in
rain mn
in
humidity
%
barometer
mb
20260504060107 62 302 0.9 2.6 0.00 0.00 0.00 52 1006.8
20260504044530 69 219 0.9 2.6 0.00 0.00 0.00 44 1006.3
20260504043032 70 267 0.9 2.6 0.00 0.00 0.00 41 1006.1
20260504041603 71 66 0.0 2.6 0.00 0.00 0.00 40 1005.9
20260504040106 73 158 2.6 4.3 0.00 0.00 0.00 40 1005.7
20260504034607 74 145 2.6 6.1 0.00 0.00 0.00 36 1005.4
20260504033032 75 159 0.9 3.5 0.00 0.00 0.00 34 1005.2
20260504030030 77 71 0.9 4.3 0.00 0.00 0.00 33 1005.0
20260504024531 78 61 1.7 7.0 0.00 0.00 0.00 33 1005.0
20260504023030 79 62 1.7 6.1 0.00 0.00 0.00 31 1005.1
20260504021532 80 57 3.5 7.0 0.00 0.00 0.00 31 1005.1
20260504020030 80 58 4.3 8.7 0.00 0.00 0.00 31 1005.2
20260504014528 81 53 5.2 7.8 0.00 0.00 0.00 30 1005.4
20260504013029 81 51 4.3 9.6 0.00 0.00 0.00 30 1005.5
20260504004530 86 28 0.9 5.2 0.00 0.00 0.00 28 1006.0
20260504003031 86 65 2.6 8.7 0.00 0.00 0.00 28 1006.0
20260504000030 87 51 4.3 12.2 0.00 0.00 0.00 27 1006.3
20260503234534 88 32 5.2 13.9 0.00 0.00 0.00 27 1006.4
20260503233032 87 27 5.2 9.6 0.00 0.00 0.00 26 1006.7
20260503231608 88 30 7.0 13.9 0.00 0.00 0.00 26 1006.9
20260503230033 88 35 2.6 9.6 0.00 0.00 0.00 25 1007.1
20260503224530 90 53 2.6 7.0 0.00 0.00 0.00 25 1007.5
20260503223029 89 46 0.9 4.3 0.00 0.00 0.00 25 1007.8
20260503221533 88 62 3.5 12.2 0.00 0.00 0.00 25 1008.0
20260503220107 88 61 3.5 10.4 0.00 0.00 0.00 25 1008.1
20260503214529 88 21 7.0 12.2 0.00 0.00 0.00 26 1008.3
20260503213029 88 60 2.6 8.7 0.00 0.00 0.00 27 1008.6
20260503211532 88 111 2.6 10.4 0.00 0.00 0.00 27 1008.8
20260503210030 88 38 4.3 14.8 0.00 0.00 0.00 28 1009.0
20260503204528 87 33 5.2 13.0 0.00 0.00 0.00 29 1009.1
20260503201531 87 29 7.0 14.8 0.00 0.00 0.00 33 1009.3
20260503200033 87 42 5.2 13.0 0.00 0.00 0.00 34 1009.4
20260503194529 86 218 2.6 5.2 0.00 0.00 0.00 40 1009.8
20260503193146 86 212 2.6 6.1 0.00 0.00 0.00 44 1009.9
20260503191530 83 266 1.7 4.3 0.00 0.00 0.00 48 1010.2
20260503190105 82 273 2.6 5.2 0.00 0.00 0.00 48 1010.4
20260503183107 79 288 1.7 3.5 0.00 0.00 0.00 49 1010.7
20260503181529 79 287 0.9 3.5 0.00 0.00 0.00 48 1010.8
20260503180105 78 254 0.9 2.6 0.00 0.00 0.00 46 1011.1
20260503174605 77 250 0.0 0.9 0.00 0.00 0.00 48 1011.2
20260503173031 76 276 0.9 2.6 0.00 0.00 0.00 49 1011.3
20260503171531 74 249 0.0 1.7 0.00 0.00 0.00 53 1011.4
20260503081529 58 116 0.9 3.5 0.00 0.00 0.00 79 1011.5
20260503071531 58 189 0.0 2.6 0.00 0.00 0.00 76 1011.6
20260503070104 59 219 0.0 1.7 0.00 0.00 0.00 74 1011.5